World > North America > United States > Ohio > North Kingsville  

North Kingsville, OH Hourly Weather Updates

Feedback E-mail the Weather

Quick Clicks

North Kingsville, OH Weather Maps

°F °C°F °C
North Kingsville Weather Map
UTC Time: 6/17/2024, 21:12
Your Time:

North Kingsville, OH Regional Weather

Expires:202406172200;;195157
ASUS41 KCLE 172110
RWRCLE
OHIO REGIONAL WEATHER ROUNDUP
NATIONAL WEATHER SERVICE CLEVELAND, OH
500 PM EDT MON JUN 17 2024

NOTE: "FAIR" INDICATES FEW OR NO CLOUDS BELOW 12,000 FEET WITH NO
SIGNIFICANT WEATHER AND/OR OBSTRUCTIONS TO VISIBILITY.


OHZ009>014-019>023-028>033-038-089-172200-
   NORTHEAST OHIO
  
CITY           SKY/WX    TMP DP  RH WIND       PRES   REMARKS
CLE-HOPKINS    PTSUNNY   80  69  69 S3        30.02F                  
CLE-LAKEFRONT  FAIR      85  68  56 SE5       30.02F                  
CUY CO. ARPT   CLOUDY    81  72  74 S6        30.05F                  
LORAIN-ELYRIA  FAIR      84  72  67 S5        30.02F                  
ASHTABULA      FAIR      82  68  62 S5        30.05F                  
AKRON-CANTON   PTSUNNY   83  68  60 CALM      30.08F                  
WOOSTER        FAIR      86  72  62 SE14G22   30.06F HX  92           
MANSFIELD      FAIR      93  67  42 SW9       30.05F HX  96           
YOUNGSTOWN     PTSUNNY   72  67  84 CALM      30.10F                  
$$


SKY/WX - Weather  TMP - Temperature  DP - Dew Point  RH - Humidity
WIND - Wind Direction/Speed PRES - Barometric Pressure VSB - Visibility
WCI - Wind Chill Index E13G22 Wind - East Wind 13 mph/Gusts of 22 mph

Trending Headlines

Trending Entertainment Headlines

North Kingsville Radar Loop

Use the map search tool if you want to place a location marker on the radar map...

North Kingsville Quick Facts

National Two Day Weather Forecast


E-mail the North Kingsville Weather Forecast

Voice your opinion or tell us about page issues...